Weather History for Wendover, UT

Change the Weather History Date:

Monday, August 5, 2013

  Actual Average Record
Temperature  
Mean Temperature 80 °F -  
Max Temperature 93 °F 92 °F 102 °F (1949)
Min Temperature 66 °F 66 °F 57 °F (1996)
Cooling Degree Days 14    
Growing Degree Days 30 (Base 50)    
Moisture  
Dew Point 34 °F    
Average Humidity 19    
Maximum Humidity 33    
Minimum Humidity 11    
Precipitation  
Precipitation 0.00 in - - ()
Sea Level Pressure  
Sea Level Pressure 30.00 in    
Wind  
Wind Speed 6 mph (SSE)    
Max Wind Speed 18 mph    
Max Gust Speed 34 mph    
Visibility 10 miles    
Events Thunderstorm    
Averages and records for this station are not official NWS values.
T = Trace of Precipitation, MM = Missing Value Source: NWS Daily Summary

Daily Weather History Graph

Daily Weather History Graph

Search for Another Location

Airport:

Trip Planner

Search our weather history database for the weather conditions in past years. The results will help you decide how hot, cold, wet, or windy it might be!

Date:

Astronomy

Aug. 05, 2013 Rise Set
Actual Time 6:36 AM MDT 8:46 PM MDT
Civil Twilight 6:06 AM MDT 9:16 PM MDT
Nautical Twilight 5:29 AM MDT 9:53 PM MDT
Astronomical Twilight 4:48 AM MDT 10:34 PM MDT
Moon 5:35 AM MDT (8/5) 7:49 PM MDT (8/5)
Length of Visible Light 15h 10m
Length of Day
14h 09m
Waning Crescent, 1% of the Moon is Illuminated
Aug 5
Waning Crescent
Aug 6
New
Aug 14
First Quarter
Aug 20
Full
Aug 28
Last Quarter

Hourly Weather History & Observations

Time (MDT) Temp. Dew Point Humidity Pressure Visibility Wind Dir Wind Speed Gust Speed Precip Events Conditions
12:15 AM 78.8 °F 28.4 °F 16% 29.99 in 10.0 mi WSW 4.6 mph - N/A   Clear
12:35 AM 75.2 °F 28.4 °F 18% 30.00 in 10.0 mi Calm Calm - N/A   Clear
12:55 AM 75.2 °F 30.2 °F 19% 29.99 in 10.0 mi NE 4.6 mph - N/A   Clear
1:15 AM 75.2 °F 33.8 °F 22% 30.00 in 10.0 mi NE 4.6 mph - N/A   Clear
1:55 AM 73.4 °F 33.8 °F 23% 30.00 in 10.0 mi NE 10.4 mph - N/A   Clear
2:15 AM 75.2 °F 35.6 °F 24% 30.00 in 10.0 mi NE 6.9 mph - N/A   Clear
2:35 AM 73.4 °F 35.6 °F 25% 30.00 in 10.0 mi NE 9.2 mph - N/A   Clear
2:55 AM 75.2 °F 33.8 °F 22% 30.00 in 10.0 mi NE 10.4 mph - N/A   Clear
3:15 AM 73.4 °F 35.6 °F 25% 30.01 in 10.0 mi NNE 8.1 mph - N/A   Clear
3:35 AM 73.4 °F 37.4 °F 27% 30.00 in 10.0 mi NE 9.2 mph - N/A   Clear
3:55 AM 71.6 °F 37.4 °F 29% 30.00 in 10.0 mi NNE 8.1 mph - N/A   Clear
4:15 AM 71.6 °F 35.6 °F 27% 30.00 in 10.0 mi North 4.6 mph - N/A   Clear
4:35 AM 71.6 °F 32.0 °F 23% 30.00 in 10.0 mi Calm Calm - N/A   Clear
4:55 AM 73.4 °F 33.8 °F 23% 30.00 in 10.0 mi NE 4.6 mph - N/A   Clear
5:15 AM 69.8 °F 35.6 °F 28% 30.00 in 10.0 mi East 4.6 mph - N/A   Clear
5:35 AM 68.0 °F 37.4 °F 33% 30.00 in 10.0 mi ENE 4.6 mph - N/A   Clear
5:55 AM 69.8 °F 35.6 °F 28% 30.01 in 10.0 mi SSW 3.5 mph - N/A   Clear
6:15 AM 71.6 °F 33.8 °F 25% 30.01 in 10.0 mi North 3.5 mph - N/A   Clear
6:35 AM 69.8 °F 37.4 °F 31% 30.02 in 10.0 mi NE 4.6 mph - N/A   Clear
6:55 AM 66.2 °F 33.8 °F 30% 30.02 in 10.0 mi Calm Calm - N/A   Clear
7:15 AM 68.0 °F 35.6 °F 30% 30.03 in 10.0 mi Calm Calm - N/A   Clear
7:35 AM 66.2 °F 35.6 °F 32% 30.04 in 10.0 mi WNW 4.6 mph - N/A   Clear
7:55 AM 69.8 °F 35.6 °F 28% 30.04 in 10.0 mi SW 3.5 mph - N/A   Clear
8:15 AM 71.6 °F 37.4 °F 29% 30.05 in 10.0 mi South 3.5 mph - N/A   Clear
8:35 AM 73.4 °F 33.8 °F 23% 30.06 in 10.0 mi Calm Calm - N/A   Clear
8:55 AM 75.2 °F 33.8 °F 22% 30.06 in 10.0 mi Calm Calm - N/A   Clear
9:15 AM 75.2 °F 33.8 °F 22% 30.06 in 10.0 mi Calm Calm - N/A   Clear
9:35 AM 77.0 °F 33.8 °F 21% 30.07 in 10.0 mi SW 3.5 mph - N/A   Clear
9:55 AM 78.8 °F 33.8 °F 20% 30.07 in 10.0 mi SW 4.6 mph - N/A   Clear
10:15 AM 80.6 °F 35.6 °F 20% 30.07 in 10.0 mi Calm Calm - N/A   Clear
10:35 AM 82.4 °F 35.6 °F 19% 30.07 in 10.0 mi Calm Calm - N/A   Clear
10:55 AM 82.4 °F 35.6 °F 19% 30.07 in 10.0 mi Calm Calm - N/A   Clear
11:15 AM 82.4 °F 35.6 °F 19% 30.06 in 10.0 mi Calm Calm - N/A   Clear
11:35 AM 87.8 °F 35.6 °F 16% 30.06 in 10.0 mi ESE 5.8 mph - N/A   Clear
11:55 AM 87.8 °F 35.6 °F 16% 30.06 in 10.0 mi East 5.8 mph - N/A   Clear
12:15 PM 87.8 °F 33.8 °F 15% 30.05 in 10.0 mi East 8.1 mph - N/A   Clear
12:35 PM 89.6 °F 33.8 °F 14% 30.05 in 10.0 mi ESE 8.1 mph - N/A   Clear
12:55 PM 91.4 °F 33.8 °F 13% 30.04 in 10.0 mi East 10.4 mph - N/A   Clear
1:15 PM 91.4 °F 32.0 °F 12% 30.03 in 10.0 mi ESE 10.4 mph - N/A   Clear
1:35 PM 93.2 °F 32.0 °F 11% 30.02 in 10.0 mi ESE 11.5 mph - N/A   Clear
1:55 PM 93.2 °F 33.8 °F 12% 30.02 in 10.0 mi ESE 12.7 mph - N/A   Clear
2:15 PM 93.2 °F 33.8 °F 12% 30.02 in 10.0 mi SE 11.5 mph - N/A Thunderstorm Clear
2:35 PM 93.2 °F 32.0 °F 11% 30.02 in 10.0 mi SSE 12.7 mph 20.7 mph N/A   Clear
2:55 PM 93.2 °F 33.8 °F 12% 30.01 in 10.0 mi South 18.4 mph - N/A Thunderstorm Clear
3:15 PM 91.4 °F 33.8 °F 13% 30.02 in 10.0 mi South 15.0 mph 23.0 mph N/A   Clear
3:35 PM 89.6 °F 33.8 °F 14% 30.02 in 9.0 mi North 12.7 mph 34.5 mph N/A   Scattered Clouds
3:55 PM 89.6 °F 33.8 °F 14% 30.02 in 10.0 mi WNW 6.9 mph 17.3 mph N/A   Partly Cloudy
4:15 PM 91.4 °F 33.8 °F 13% 30.00 in 10.0 mi South 11.5 mph 21.9 mph N/A   Clear
4:35 PM 91.4 °F 35.6 °F 14% 29.99 in 10.0 mi SSW 4.6 mph - N/A   Clear
5:15 PM 91.4 °F 33.8 °F 13% 29.99 in 10.0 mi West 4.6 mph - N/A   Clear
5:35 PM 93.2 °F 33.8 °F 12% 29.98 in 10.0 mi SW 5.8 mph - N/A   Clear
5:55 PM 93.2 °F 33.8 °F 12% 29.97 in 10.0 mi WSW 9.2 mph - N/A   Clear
6:15 PM 93.2 °F 33.8 °F 12% 29.97 in 10.0 mi SSW 10.4 mph - N/A   Clear
6:35 PM 93.2 °F 33.8 °F 12% 29.96 in 10.0 mi SSW 10.4 mph - N/A   Clear
6:55 PM 93.2 °F 33.8 °F 12% 29.95 in 10.0 mi SSW 9.2 mph - N/A   Clear
7:15 PM 93.2 °F 33.8 °F 12% 29.94 in 10.0 mi South 12.7 mph - N/A   Clear
7:35 PM 91.4 °F 32.0 °F 12% 29.94 in 10.0 mi SSW 8.1 mph - N/A   Clear
7:55 PM 91.4 °F 32.0 °F 12% 29.93 in 10.0 mi SSW 8.1 mph - N/A   Clear
8:15 PM 91.4 °F 32.0 °F 12% 29.94 in 10.0 mi South 11.5 mph - N/A   Clear
8:35 PM 89.6 °F 32.0 °F 13% 29.95 in 10.0 mi South 9.2 mph - N/A   Clear
8:55 PM 89.6 °F 32.0 °F 13% 29.95 in 10.0 mi SSW 8.1 mph - N/A   Clear
9:15 PM 89.6 °F 32.0 °F 13% 29.95 in 10.0 mi South 5.8 mph - N/A   Clear
9:35 PM 87.8 °F 32.0 °F 14% 29.95 in 10.0 mi South 8.1 mph - N/A   Clear
9:55 PM 86.0 °F 32.0 °F 14% 29.96 in 10.0 mi SW 5.8 mph - N/A   Clear
10:15 PM 84.2 °F 32.0 °F 15% 29.96 in 10.0 mi WNW 3.5 mph - N/A   Clear
10:35 PM 84.2 °F 33.8 °F 16% 29.96 in 10.0 mi Calm Calm - N/A   Clear
10:55 PM 82.4 °F 37.4 °F 20% 29.96 in 10.0 mi Calm Calm - N/A   Clear
11:15 PM 80.6 °F 32.0 °F 17% 29.96 in 10.0 mi WNW 3.5 mph - N/A   Clear
11:35 PM 78.8 °F 32.0 °F 18% 29.95 in 10.0 mi Calm Calm - N/A   Clear
11:55 PM 78.8 °F 33.8 °F 20% 29.96 in 10.0 mi Calm Calm - N/A   Clear